| time (UTC) | temp F | wind direction | speed knots | gust knots | rain 1hr in | rain 24hr in | rain mn in | humidity % | barometer mb |
| 20260507001540 | 64 | 219 | 0.9 | 3.5 | 0.00 | 0.00 | 0.00 | 73 | 1018.9 |
| 20260507001034 | 64 | 206 | 0.0 | 5.2 | 0.00 | 0.00 | 0.00 | 73 | 1018.9 |
| 20260507000531 | 64 | 114 | 0.0 | 5.2 | 0.00 | 0.00 | 0.00 | 73 | 1018.9 |
| 20260507000031 | 65 | 180 | 0.9 | 3.5 | 0.00 | 0.00 | 0.00 | 72 | 1018.9 |
| 20260506235530 | 65 | 51 | 0.0 | 3.5 | 0.00 | 0.00 | 0.00 | 72 | 1019.1 |
| 20260506235030 | 65 | 136 | 0.9 | 3.5 | 0.00 | 0.00 | 0.00 | 72 | 1019.0 |
| 20260506234531 | 64 | 329 | 0.9 | 6.1 | 0.00 | 0.00 | 0.00 | 73 | 1019.0 |
| 20260506234029 | 64 | 111 | 0.9 | 6.1 | 0.00 | 0.00 | 0.00 | 73 | 1019.0 |
| 20260506233529 | 65 | 107 | 0.9 | 5.2 | 0.00 | 0.00 | 0.00 | 70 | 1019.1 |
| 20260506233028 | 65 | 234 | 0.0 | 5.2 | 0.00 | 0.00 | 0.00 | 70 | 1019.1 |
| 20260506232528 | 66 | 136 | 0.0 | 6.1 | 0.00 | 0.00 | 0.00 | 71 | 1019.0 |
| 20260506232027 | 66 | 275 | 0.9 | 6.1 | 0.00 | 0.00 | 0.00 | 70 | 1019.2 |
| 20260506231527 | 67 | 82 | 0.0 | 2.6 | 0.00 | 0.00 | 0.00 | 70 | 1019.2 |
| 20260506231027 | 67 | 110 | 0.0 | 6.1 | 0.00 | 0.00 | 0.00 | 70 | 1019.1 |
| 20260506230526 | 67 | 207 | 1.7 | 6.1 | 0.00 | 0.00 | 0.00 | 69 | 1019.2 |
| 20260506230028 | 67 | 91 | 0.9 | 3.5 | 0.00 | 0.00 | 0.00 | 70 | 1019.2 |
| 20260506225525 | 67 | 136 | 0.9 | 3.5 | 0.00 | 0.00 | 0.00 | 69 | 1019.3 |
| 20260506225025 | 67 | 81 | 0.9 | 3.5 | 0.00 | 0.00 | 0.00 | 69 | 1019.3 |
| 20260506224525 | 66 | 76 | 0.0 | 4.3 | 0.00 | 0.00 | 0.00 | 70 | 1019.5 |
| 20260506224023 | 66 | 97 | 0.9 | 4.3 | 0.00 | 0.00 | 0.00 | 70 | 1019.6 |
| 20260506223524 | 66 | 257 | 0.9 | 4.3 | 0.00 | 0.00 | 0.00 | 69 | 1019.6 |
| 20260506223024 | 67 | 80 | 0.0 | 6.1 | 0.00 | 0.00 | 0.00 | 69 | 1019.6 |
| 20260506222524 | 66 | 125 | 0.9 | 6.1 | 0.00 | 0.00 | 0.00 | 69 | 1019.6 |
| 20260506222024 | 67 | 112 | 0.9 | 5.2 | 0.00 | 0.00 | 0.00 | 68 | 1019.8 |
| 20260506221523 | 67 | 53 | 2.6 | 5.2 | 0.00 | 0.00 | 0.00 | 67 | 1019.8 |
| 20260506221023 | 67 | 123 | 0.9 | 5.2 | 0.00 | 0.00 | 0.00 | 67 | 1019.9 |
| 20260506220523 | 67 | 162 | 0.0 | 5.2 | 0.00 | 0.00 | 0.00 | 68 | 1020.0 |
| 20260506220023 | 67 | 45 | 0.9 | 5.2 | 0.00 | 0.00 | 0.00 | 67 | 1020.0 |
| 20260506215522 | 67 | 17 | 0.9 | 3.5 | 0.00 | 0.00 | 0.00 | 68 | 1020.0 |
| 20260506215022 | 67 | 32 | 0.0 | 4.3 | 0.00 | 0.00 | 0.00 | 69 | 1020.0 |
| 20260506214521 | 67 | 194 | 0.9 | 4.3 | 0.00 | 0.00 | 0.00 | 67 | 1020.1 |
| 20260506214024 | 67 | 294 | 0.9 | 6.1 | 0.00 | 0.00 | 0.00 | 68 | 1020.1 |
| 20260506213520 | 68 | 199 | 0.9 | 6.1 | 0.00 | 0.00 | 0.00 | 68 | 1020.1 |
| 20260506213020 | 67 | 128 | 0.0 | 5.2 | 0.00 | 0.00 | 0.00 | 68 | 1020.1 |
| 20260506212520 | 68 | 47 | 1.7 | 5.2 | 0.00 | 0.00 | 0.00 | 66 | 1020.3 |
| 20260506212020 | 68 | 48 | 0.9 | 4.3 | 0.00 | 0.00 | 0.00 | 68 | 1020.3 |
| 20260506211519 | 69 | 19 | 0.9 | 3.5 | 0.00 | 0.00 | 0.00 | 66 | 1020.2 |
| 20260506211018 | 68 | 29 | 0.9 | 3.5 | 0.00 | 0.00 | 0.00 | 68 | 1020.2 |
| 20260506210518 | 68 | 90 | 0.9 | 4.3 | 0.00 | 0.00 | 0.00 | 69 | 1020.3 |
| 20260506210017 | 68 | 91 | 0.9 | 4.3 | 0.00 | 0.00 | 0.00 | 67 | 1020.4 |
| 20260506205519 | 68 | 158 | 1.7 | 4.3 | 0.00 | 0.00 | 0.00 | 69 | 1020.4 |
| 20260506205117 | 67 | 121 | 0.0 | 4.3 | 0.00 | 0.00 | 0.00 | 71 | 1020.4 |
| 20260506204516 | 66 | 228 | 0.9 | 6.1 | 0.00 | 0.00 | 0.00 | 71 | 1020.5 |
| 20260506204015 | 66 | 248 | 0.9 | 6.1 | 0.00 | 0.00 | 0.00 | 69 | 1020.5 |
| 20260506203514 | 67 | 137 | 0.9 | 3.5 | 0.00 | 0.00 | 0.00 | 69 | 1020.6 |
| 20260506203014 | 66 | 101 | 0.0 | 4.3 | 0.00 | 0.00 | 0.00 | 69 | 1020.6 |
| 20260506202512 | 66 | 5 | 0.0 | 4.3 | 0.00 | 0.00 | 0.00 | 71 | 1020.6 |
| 20260506202011 | 66 | 126 | 1.7 | 4.3 | 0.00 | 0.00 | 0.00 | 70 | 1020.7 |
| 20260506201513 | 66 | 173 | 0.0 | 4.3 | 0.00 | 0.00 | 0.00 | 74 | 1020.7 |
| 20260506201009 | 65 | 215 | 0.9 | 4.3 | 0.00 | 0.00 | 0.00 | 74 | 1020.8 |
| 20260506200509 | 64 | 168 | 0.9 | 4.3 | 0.00 | 0.00 | 0.00 | 74 | 1020.9 |
| 20260506200011 | 64 | 170 | 1.7 | 3.5 | 0.00 | 0.00 | 0.00 | 73 | 1020.9 |
| 20260506195507 | 64 | 154 | 0.0 | 5.2 | 0.00 | 0.00 | 0.00 | 73 | 1020.9 |
| 20260506195007 | 64 | 197 | 1.7 | 5.2 | 0.00 | 0.00 | 0.00 | 73 | 1021.0 |
| 20260506194506 | 64 | 181 | 0.0 | 3.5 | 0.00 | 0.00 | 0.00 | 76 | 1020.9 |
| 20260506194006 | 63 | 141 | 0.0 | 5.2 | 0.00 | 0.00 | 0.00 | 75 | 1021.0 |
| 20260506193505 | 62 | 171 | 0.9 | 5.2 | 0.00 | 0.00 | 0.00 | 75 | 1021.1 |
| 20260506193005 | 63 | 187 | 0.9 | 5.2 | 0.00 | 0.00 | 0.00 | 73 | 1021.1 |
| 20260506192505 | 63 | 163 | 0.9 | 3.5 | 0.00 | 0.00 | 0.00 | 75 | 1021.2 |
| 20260506192005 | 63 | 144 | 0.0 | 2.6 | 0.00 | 0.00 | 0.00 | 76 | 1021.2 |
| 20260506191505 | 63 | 53 | 0.9 | 4.3 | 0.00 | 0.00 | 0.00 | 74 | 1021.2 |
| 20260506191005 | 63 | 153 | 0.9 | 4.3 | 0.00 | 0.00 | 0.00 | 73 | 1021.3 |
| 20260506190505 | 63 | 121 | 1.7 | 3.5 | 0.00 | 0.00 | 0.00 | 74 | 1021.3 |
| 20260506190006 | 63 | 134 | 0.0 | 3.5 | 0.00 | 0.00 | 0.00 | 73 | 1021.4 |
| 20260506185503 | 63 | 136 | 0.0 | 3.5 | 0.00 | 0.00 | 0.00 | 73 | 1021.3 |
| 20260506185004 | 63 | 46 | 0.9 | 4.3 | 0.00 | 0.00 | 0.00 | 74 | 1021.3 |
| 20260506184502 | 62 | 120 | 0.0 | 4.3 | 0.00 | 0.00 | 0.00 | 76 | 1021.2 |
| 20260506184101 | 62 | 202 | 0.9 | 4.3 | 0.00 | 0.00 | 0.00 | 74 | 1021.4 |
| 20260506183603 | 62 | 226 | 0.9 | 4.3 | 0.00 | 0.00 | 0.00 | 73 | 1021.3 |
| 20260506183108 | 63 | 72 | 0.0 | 1.7 | 0.00 | 0.00 | 0.00 | 77 | 1021.4 |
| 20260506182559 | 62 | 142 | 0.0 | 4.3 | 0.00 | 0.00 | 0.00 | 76 | 1021.4 |
| 20260506182101 | 62 | 138 | 0.0 | 4.3 | 0.00 | 0.00 | 0.00 | 76 | 1021.4 |
| 20260506181557 | 62 | 140 | 0.9 | 3.5 | 0.00 | 0.00 | 0.00 | 75 | 1021.3 |
| 20260506181056 | 61 | 159 | 0.0 | 2.6 | 0.00 | 0.00 | 0.00 | 78 | 1021.3 |
| 20260506180555 | 61 | 164 | 0.9 | 3.5 | 0.00 | 0.00 | 0.00 | 78 | 1021.3 |
| 20260506180054 | 60 | 176 | 0.0 | 3.5 | 0.00 | 0.00 | 0.00 | 79 | 1021.3 |
| 20260506175552 | 60 | 161 | 0.0 | 2.6 | 0.00 | 0.00 | 0.00 | 77 | 1021.3 |
| 20260506175052 | 60 | 180 | 0.0 | 2.6 | 0.00 | 0.00 | 0.00 | 78 | 1021.3 |
| 20260506174558 | 60 | 130 | 0.0 | 1.7 | 0.00 | 0.00 | 0.00 | 79 | 1021.3 |
| 20260506174051 | 60 | 183 | 0.0 | 1.7 | 0.00 | 0.00 | 0.00 | 78 | 1021.3 |
| 20260506173551 | 60 | 218 | 0.0 | 1.7 | 0.00 | 0.00 | 0.00 | 79 | 1021.3 |
| 20260506173111 | 60 | 203 | 0.0 | 4.3 | 0.00 | 0.00 | 0.00 | 80 | 1021.3 |
| 20260506172550 | 59 | 215 | 0.9 | 4.3 | 0.00 | 0.00 | 0.00 | 79 | 1021.4 |
| 20260506172050 | 60 | 182 | 0.9 | 6.1 | 0.00 | 0.00 | 0.00 | 79 | 1021.4 |
| 20260506171551 | 60 | 136 | 1.7 | 6.1 | 0.00 | 0.00 | 0.00 | 79 | 1021.4 |
| 20260506171048 | 60 | 140 | 0.9 | 3.5 | 0.00 | 0.00 | 0.00 | 80 | 1021.4 |
| 20260506170550 | 59 | 222 | 0.9 | 3.5 | 0.00 | 0.00 | 0.00 | 79 | 1021.5 |
| 20260506170047 | 59 | 99 | 0.0 | 1.7 | 0.00 | 0.00 | 0.00 | 82 | 1021.4 |
| 20260506165544 | 57 | 180 | 0.0 | 1.7 | 0.00 | 0.00 | 0.00 | 83 | 1021.4 |
| 20260506165043 | 57 | 193 | 0.0 | 3.5 | 0.00 | 0.00 | 0.00 | 84 | 1021.4 |
| 20260506164541 | 56 | 178 | 0.0 | 3.5 | 0.00 | 0.00 | 0.00 | 85 | 1021.4 |
| 20260506164039 | 56 | 164 | 1.7 | 4.3 | 0.00 | 0.00 | 0.00 | 84 | 1021.5 |
| 20260506163543 | 56 | 167 | 1.7 | 4.3 | 0.00 | 0.00 | 0.00 | 84 | 1021.4 |
| 20260506163044 | 56 | 200 | 0.0 | 1.7 | 0.00 | 0.00 | 0.00 | 85 | 1021.5 |
| 20260506162539 | 56 | 181 | 0.0 | 1.7 | 0.00 | 0.00 | 0.00 | 85 | 1021.4 |
| 20260506162038 | 56 | 184 | 0.0 | 2.6 | 0.00 | 0.00 | 0.00 | 85 | 1021.4 |
| 20260506161539 | 55 | 213 | 0.0 | 2.6 | 0.00 | 0.00 | 0.00 | 85 | 1021.5 |
| 20260506161041 | 55 | 178 | 0.9 | 4.3 | 0.00 | 0.00 | 0.00 | 85 | 1021.5 |
| 20260506160536 | 55 | 145 | 1.7 | 4.3 | 0.00 | 0.00 | 0.00 | 84 | 1021.4 |
| 20260506160037 | 55 | 205 | 0.0 | 1.7 | 0.00 | 0.00 | 0.00 | 85 | 1021.4 |
| 20260506155535 | 55 | 123 | 0.0 | 3.5 | 0.00 | 0.01 | 0.00 | 85 | 1021.5 |
| 20260506155034 | 55 | 144 | 0.9 | 3.5 | 0.00 | 0.01 | 0.00 | 85 | 1021.4 |
| 20260506154533 | 55 | 142 | 0.0 | 3.5 | 0.00 | 0.01 | 0.00 | 87 | 1021.4 |
| 20260506154031 | 54 | 142 | 0.0 | 3.5 | 0.00 | 0.01 | 0.00 | 87 | 1021.5 |
| 20260506153530 | 54 | 146 | 0.0 | 1.7 | 0.00 | 0.01 | 0.00 | 87 | 1021.5 |
| 20260506153040 | 54 | 146 | 0.0 | 1.7 | 0.00 | 0.01 | 0.00 | 87 | 1021.4 |
| 20260506152529 | 54 | 147 | 0.0 | 1.7 | 0.00 | 0.01 | 0.00 | 87 | 1021.4 |
| 20260506152031 | 54 | 146 | 0.0 | 2.6 | 0.00 | 0.01 | 0.00 | 87 | 1021.4 |
| 20260506151529 | 54 | 140 | 0.0 | 2.6 | 0.00 | 0.01 | 0.00 | 87 | 1021.4 |
| 20260506151030 | 54 | 138 | 0.0 | 1.7 | 0.00 | 0.01 | 0.00 | 88 | 1021.4 |
| 20260506150528 | 53 | 152 | 0.0 | 0.0 | 0.00 | 0.01 | 0.00 | 89 | 1021.4 |
| 20260506150027 | 53 | 152 | 0.0 | 0.0 | 0.00 | 0.01 | 0.00 | 89 | 1021.4 |
| 20260506145529 | 53 | 152 | 0.0 | 0.0 | 0.00 | 0.01 | 0.00 | 90 | 1021.4 |
| 20260506145025 | 52 | 153 | 0.0 | 0.0 | 0.00 | 0.01 | 0.00 | 91 | 1021.4 |
| 20260506144536 | 52 | 152 | 0.0 | 0.0 | 0.00 | 0.01 | 0.00 | 92 | 1021.3 |
| 20260506144021 | 52 | 152 | 0.0 | 0.0 | 0.00 | 0.01 | 0.00 | 92 | 1021.3 |
| 20260506143521 | 52 | 153 | 0.0 | 0.0 | 0.00 | 0.01 | 0.00 | 92 | 1021.2 |
| 20260506143019 | 52 | 153 | 0.0 | 0.0 | 0.00 | 0.01 | 0.00 | 92 | 1021.1 |
| 20260506142517 | 51 | 360 | 0.0 | 0.0 | 0.00 | 0.01 | 0.00 | 92 | 1021.2 |
| 20260506142016 | 51 | 171 | 0.0 | 0.0 | 0.00 | 0.01 | 0.00 | 92 | 1021.2 |
| 20260506141515 | 51 | 160 | 0.0 | 0.0 | 0.00 | 0.01 | 0.00 | 92 | 1021.0 |
| 20260506141019 | 51 | 150 | 0.0 | 0.0 | 0.00 | 0.01 | 0.00 | 92 | 1020.9 |
| 20260506140515 | 51 | 150 | 0.0 | 0.0 | 0.00 | 0.01 | 0.00 | 93 | 1021.0 |
| 20260506140014 | 51 | 149 | 0.0 | 0.0 | 0.00 | 0.01 | 0.00 | 92 | 1020.8 |
| 20260506135512 | 51 | 149 | 0.0 | 0.0 | 0.00 | 0.01 | 0.00 | 92 | 1020.7 |
| 20260506135016 | 51 | 149 | 0.0 | 0.0 | 0.00 | 0.01 | 0.00 | 92 | 1020.7 |
| 20260506134511 | 51 | 149 | 0.0 | 0.0 | 0.00 | 0.01 | 0.00 | 92 | 1020.7 |
| 20260506134010 | 51 | 149 | 0.0 | 0.0 | 0.00 | 0.01 | 0.00 | 92 | 1020.6 |
| 20260506133509 | 51 | 149 | 0.0 | 0.0 | 0.00 | 0.01 | 0.00 | 92 | 1020.6 |
| 20260506133008 | 51 | 149 | 0.0 | 0.0 | 0.00 | 0.01 | 0.00 | 92 | 1020.6 |
| 20260506132510 | 51 | 149 | 0.0 | 0.0 | 0.00 | 0.01 | 0.00 | 91 | 1020.6 |
| 20260506132007 | 51 | 149 | 0.0 | 0.0 | 0.00 | 0.01 | 0.00 | 91 | 1020.6 |
| 20260506131508 | 51 | 149 | 0.0 | 0.0 | 0.00 | 0.01 | 0.00 | 91 | 1020.6 |
| 20260506131007 | 51 | 149 | 0.0 | 0.0 | 0.00 | 0.01 | 0.00 | 91 | 1020.5 |
| 20260506130506 | 51 | 149 | 0.0 | 0.0 | 0.00 | 0.01 | 0.00 | 91 | 1020.6 |
| 20260506130006 | 51 | 149 | 0.0 | 0.0 | 0.00 | 0.01 | 0.00 | 91 | 1020.5 |
| 20260506125505 | 51 | 149 | 0.0 | 0.0 | 0.00 | 0.01 | 0.00 | 91 | 1020.4 |
| 20260506125004 | 51 | 149 | 0.0 | 0.0 | 0.00 | 0.01 | 0.00 | 91 | 1020.5 |
| 20260506124504 | 51 | 149 | 0.0 | 0.0 | 0.00 | 0.01 | 0.00 | 91 | 1020.4 |
| 20260506124003 | 51 | 149 | 0.0 | 0.0 | 0.00 | 0.01 | 0.00 | 91 | 1020.3 |
| 20260506123503 | 51 | 149 | 0.0 | 0.0 | 0.00 | 0.01 | 0.00 | 91 | 1020.4 |
| 20260506123003 | 51 | 149 | 0.0 | 0.0 | 0.00 | 0.01 | 0.00 | 91 | 1020.3 |
| 20260506122502 | 51 | 149 | 0.0 | 0.0 | 0.00 | 0.01 | 0.00 | 91 | 1020.4 |
| 20260506122001 | 51 | 149 | 0.0 | 0.0 | 0.00 | 0.01 | 0.00 | 91 | 1020.4 |
| 20260506121602 | 51 | 149 | 0.0 | 0.0 | 0.00 | 0.01 | 0.00 | 91 | 1020.3 |
| 20260506121100 | 51 | 149 | 0.0 | 0.0 | 0.00 | 0.01 | 0.00 | 91 | 1020.2 |
| 20260506121001 | 51 | 149 | 0.0 | 0.0 | 0.00 | 0.01 | 0.00 | 91 | 1020.3 |
| 20260506120601 | 51 | 149 | 0.0 | 0.0 | 0.00 | 0.01 | 0.00 | 91 | 1020.4 |
| 20260506120105 | 51 | 149 | 0.0 | 0.0 | 0.00 | 0.01 | 0.00 | 90 | 1020.3 |
| 20260506115600 | 51 | 149 | 0.0 | 0.0 | 0.00 | 0.02 | 0.00 | 91 | 1020.3 |
| 20260506115058 | 51 | 149 | 0.0 | 0.0 | 0.00 | 0.02 | 0.00 | 91 | 1020.1 |
| 20260506114606 | 51 | 149 | 0.0 | 0.0 | 0.00 | 0.02 | 0.00 | 91 | 1020.2 |
| 20260506114058 | 51 | 149 | 0.0 | 0.0 | 0.00 | 0.02 | 0.00 | 91 | 1020.1 |
| 20260506113556 | 51 | 149 | 0.0 | 0.0 | 0.00 | 0.02 | 0.00 | 91 | 1020.0 |
| 20260506113058 | 51 | 149 | 0.0 | 0.0 | 0.00 | 0.02 | 0.00 | 91 | 1020.0 |
| 20260506112556 | 51 | 149 | 0.0 | 0.0 | 0.00 | 0.02 | 0.00 | 91 | 1019.9 |
| 20260506112055 | 51 | 149 | 0.0 | 0.0 | 0.00 | 0.02 | 0.00 | 91 | 1019.9 |
| 20260506111555 | 51 | 149 | 0.0 | 0.0 | 0.00 | 0.02 | 0.00 | 91 | 1019.9 |
| 20260506111055 | 51 | 149 | 0.0 | 0.0 | 0.00 | 0.02 | 0.00 | 91 | 1019.8 |
| 20260506110555 | 51 | 149 | 0.0 | 0.0 | 0.00 | 0.02 | 0.00 | 91 | 1019.9 |
| 20260506110055 | 51 | 149 | 0.0 | 0.0 | 0.00 | 0.02 | 0.00 | 91 | 1019.8 |
| 20260506105554 | 51 | 149 | 0.0 | 0.0 | 0.00 | 0.02 | 0.00 | 91 | 1019.8 |
| 20260506105056 | 51 | 149 | 0.0 | 0.0 | 0.00 | 0.02 | 0.00 | 91 | 1019.9 |
| 20260506104600 | 51 | 149 | 0.0 | 0.0 | 0.00 | 0.02 | 0.00 | 91 | 1019.8 |
| 20260506104053 | 51 | 149 | 0.0 | 0.0 | 0.00 | 0.02 | 0.00 | 91 | 1019.8 |
| 20260506103553 | 51 | 149 | 0.0 | 0.0 | 0.00 | 0.02 | 0.00 | 91 | 1019.8 |
| 20260506103055 | 51 | 149 | 0.0 | 0.0 | 0.00 | 0.02 | 0.00 | 91 | 1019.7 |
| 20260506102551 | 51 | 149 | 0.0 | 0.0 | 0.00 | 0.02 | 0.00 | 91 | 1019.8 |
| 20260506102054 | 51 | 149 | 0.0 | 0.0 | 0.00 | 0.02 | 0.00 | 91 | 1019.7 |
| 20260506101552 | 51 | 149 | 0.0 | 0.0 | 0.00 | 0.02 | 0.00 | 92 | 1019.7 |
| 20260506101052 | 51 | 149 | 0.0 | 0.0 | 0.00 | 0.02 | 0.00 | 92 | 1019.8 |
| 20260506100551 | 51 | 149 | 0.0 | 0.0 | 0.00 | 0.02 | 0.00 | 92 | 1019.6 |
| 20260506100105 | 51 | 149 | 0.0 | 0.0 | 0.00 | 0.02 | 0.00 | 92 | 1019.8 |
| 20260506095551 | 51 | 149 | 0.0 | 0.0 | 0.00 | 0.03 | 0.00 | 92 | 1019.7 |
| 20260506095051 | 51 | 149 | 0.0 | 0.0 | 0.00 | 0.03 | 0.00 | 92 | 1019.8 |
| 20260506094600 | 51 | 149 | 0.0 | 0.0 | 0.00 | 0.03 | 0.00 | 92 | 1019.8 |
| 20260506094049 | 51 | 149 | 0.0 | 0.0 | 0.00 | 0.03 | 0.00 | 92 | 1019.8 |
| 20260506093549 | 50 | 149 | 0.0 | 0.0 | 0.00 | 0.03 | 0.00 | 92 | 1019.8 |
| 20260506093049 | 50 | 149 | 0.0 | 0.0 | 0.00 | 0.03 | 0.00 | 92 | 1019.7 |
| 20260506092548 | 50 | 149 | 0.0 | 0.0 | 0.00 | 0.03 | 0.00 | 92 | 1019.8 |
| 20260506092048 | 50 | 149 | 0.0 | 0.0 | 0.00 | 0.03 | 0.00 | 92 | 1019.8 |
| 20260506091548 | 50 | 149 | 0.0 | 0.0 | 0.00 | 0.03 | 0.00 | 91 | 1019.8 |
| 20260506091046 | 50 | 149 | 0.0 | 0.0 | 0.00 | 0.03 | 0.00 | 91 | 1019.6 |
| 20260506090546 | 50 | 149 | 0.0 | 0.0 | 0.00 | 0.03 | 0.00 | 91 | 1019.7 |
| 20260506090045 | 51 | 149 | 0.0 | 0.0 | 0.00 | 0.03 | 0.00 | 91 | 1019.6 |
| 20260506085545 | 51 | 149 | 0.0 | 0.0 | 0.00 | 0.07 | 0.00 | 91 | 1019.6 |
| 20260506085049 | 51 | 149 | 0.0 | 0.0 | 0.00 | 0.07 | 0.00 | 91 | 1019.7 |
| 20260506084549 | 51 | 149 | 0.0 | 0.0 | 0.00 | 0.07 | 0.00 | 91 | 1019.7 |
| 20260506084043 | 51 | 149 | 0.0 | 0.0 | 0.00 | 0.07 | 0.00 | 91 | 1019.7 |
| 20260506083543 | 51 | 149 | 0.0 | 0.0 | 0.00 | 0.07 | 0.00 | 91 | 1019.7 |
| 20260506083046 | 51 | 149 | 0.0 | 0.0 | 0.00 | 0.07 | 0.00 | 91 | 1019.7 |
| 20260506082542 | 51 | 149 | 0.0 | 0.0 | 0.00 | 0.07 | 0.00 | 91 | 1019.7 |
| 20260506082041 | 51 | 149 | 0.0 | 0.0 | 0.00 | 0.07 | 0.00 | 90 | 1019.7 |
| 20260506081559 | 51 | 149 | 0.0 | 0.0 | 0.00 | 0.07 | 0.00 | 90 | 1019.8 |
| 20260506081040 | 51 | 149 | 0.0 | 0.0 | 0.00 | 0.07 | 0.00 | 90 | 1019.8 |
| 20260506080542 | 51 | 149 | 0.0 | 0.0 | 0.00 | 0.07 | 0.00 | 90 | 1019.8 |
| 20260506073037 | 52 | 149 | 0.0 | 0.0 | 0.00 | 0.12 | 0.00 | 90 | 1019.5 |
| 20260506072534 | 52 | 149 | 0.0 | 0.0 | 0.00 | 0.12 | 0.00 | 90 | 1019.6 |
| 20260506072034 | 52 | 149 | 0.0 | 0.9 | 0.00 | 0.12 | 0.00 | 90 | 1019.5 |
| 20260506071531 | 52 | 149 | 0.0 | 1.7 | 0.00 | 0.12 | 0.00 | 91 | 1019.4 |
| 20260506071031 | 52 | 148 | 0.0 | 2.6 | 0.00 | 0.12 | 0.00 | 91 | 1019.5 |
| 20260506070528 | 52 | 148 | 0.9 | 2.6 | 0.00 | 0.12 | 0.00 | 91 | 1019.4 |
| 20260506062023 | 52 | 157 | 0.9 | 2.6 | 0.00 | 0.14 | 0.12 | 92 | 1019.0 |
| 20260506061523 | 52 | 157 | 0.0 | 1.7 | 0.00 | 0.14 | 0.12 | 92 | 1019.1 |
| 20260506061023 | 52 | 157 | 0.0 | 1.7 | 0.00 | 0.14 | 0.12 | 92 | 1019.1 |
| 20260506060523 | 52 | 157 | 0.0 | 1.7 | 0.00 | 0.14 | 0.12 | 92 | 1019.1 |
| 20260506051019 | 52 | 159 | 0.0 | 1.7 | 0.00 | 0.16 | 0.12 | 91 | 1018.8 |
| 20260506050518 | 52 | 159 | 0.0 | 1.7 | 0.00 | 0.16 | 0.12 | 91 | 1018.9 |
| 20260506045017 | 52 | 159 | 0.0 | 1.7 | 0.00 | 0.19 | 0.12 | 90 | 1018.7 |
| 20260506044517 | 52 | 159 | 0.0 | 1.7 | 0.00 | 0.19 | 0.12 | 90 | 1018.5 |
| 20260506044015 | 52 | 159 | 0.0 | 1.7 | 0.00 | 0.19 | 0.12 | 90 | 1018.5 |
| 20260506043516 | 52 | 159 | 0.0 | 1.7 | 0.00 | 0.19 | 0.12 | 89 | 1018.4 |
| 20260506043014 | 52 | 159 | 0.0 | 1.7 | 0.00 | 0.19 | 0.12 | 89 | 1018.3 |
| 20260506042514 | 52 | 159 | 0.0 | 1.7 | 0.00 | 0.19 | 0.12 | 88 | 1018.2 |
| 20260506042018 | 52 | 159 | 0.0 | 1.7 | 0.00 | 0.19 | 0.12 | 88 | 1018.2 |
| 20260506041512 | 52 | 159 | 0.0 | 1.7 | 0.00 | 0.19 | 0.12 | 88 | 1018.2 |
| 20260506041018 | 52 | 159 | 0.0 | 0.0 | 0.00 | 0.19 | 0.12 | 87 | 1018.1 |
| 20260506040512 | 52 | 159 | 0.0 | 0.0 | 0.00 | 0.19 | 0.12 | 87 | 1018.1 |
| 20260506040012 | 53 | 159 | 0.0 | 0.0 | 0.00 | 0.19 | 0.12 | 87 | 1018.0 |
| 20260506035511 | 53 | 159 | 0.0 | 1.7 | 0.00 | 0.19 | 0.12 | 87 | 1017.9 |
| 20260506035011 | 53 | 159 | 0.0 | 1.7 | 0.00 | 0.19 | 0.12 | 87 | 1017.8 |
| 20260506034509 | 53 | 148 | 0.0 | 1.7 | 0.00 | 0.19 | 0.12 | 87 | 1017.7 |
| 20260506034011 | 53 | 163 | 0.0 | 2.6 | 0.00 | 0.19 | 0.12 | 87 | 1017.7 |
| 20260506033514 | 53 | 163 | 0.0 | 2.6 | 0.00 | 0.19 | 0.12 | 87 | 1017.6 |
| 20260506033008 | 53 | 183 | 0.0 | 1.7 | 0.00 | 0.19 | 0.12 | 86 | 1017.6 |
| 20260506032507 | 53 | 211 | 0.0 | 1.7 | 0.00 | 0.19 | 0.12 | 86 | 1017.4 |
| 20260506032006 | 53 | 360 | 0.0 | 1.7 | 0.00 | 0.19 | 0.12 | 86 | 1017.4 |
| 20260506031509 | 54 | 230 | 0.0 | 4.3 | 0.00 | 0.19 | 0.12 | 86 | 1017.3 |
| 20260506031006 | 54 | 138 | 0.0 | 4.3 | 0.00 | 0.19 | 0.12 | 85 | 1017.3 |
| 20260506030506 | 54 | 141 | 0.0 | 1.7 | 0.00 | 0.19 | 0.12 | 86 | 1017.2 |
| 20260506030006 | 54 | 139 | 0.0 | 3.5 | 0.00 | 0.19 | 0.12 | 86 | 1017.1 |
| 20260506025506 | 54 | 360 | 0.0 | 3.5 | 0.00 | 0.19 | 0.12 | 85 | 1017.1 |
| 20260506025008 | 54 | 178 | 0.0 | 0.9 | 0.00 | 0.19 | 0.12 | 86 | 1017.0 |
| 20260506024507 | 54 | 360 | 0.0 | 1.7 | 0.00 | 0.19 | 0.12 | 85 | 1017.2 |
| 20260506024004 | 54 | 360 | 0.0 | 1.7 | 0.00 | 0.19 | 0.12 | 85 | 1017.1 |
| 20260506023505 | 54 | 360 | 0.0 | 1.7 | 0.00 | 0.19 | 0.12 | 85 | 1017.1 |
| 20260506023106 | 54 | 360 | 0.0 | 1.7 | 0.00 | 0.19 | 0.12 | 84 | 1017.1 |
| 20260506022502 | 55 | 360 | 0.0 | 2.6 | 0.00 | 0.19 | 0.12 | 84 | 1017.0 |
| 20260506022004 | 55 | 360 | 0.0 | 2.6 | 0.00 | 0.19 | 0.12 | 84 | 1016.8 |
| 20260506021502 | 55 | 360 | 0.0 | 2.6 | 0.00 | 0.19 | 0.12 | 84 | 1016.8 |
| 20260506021002 | 55 | 130 | 0.0 | 2.6 | 0.00 | 0.19 | 0.12 | 84 | 1016.8 |
| 20260506020501 | 55 | 128 | 0.0 | 2.6 | 0.00 | 0.19 | 0.12 | 83 | 1016.7 |
| 20260506020002 | 55 | 148 | 0.0 | 2.6 | 0.00 | 0.19 | 0.12 | 83 | 1016.6 |
| 20260506015503 | 55 | 360 | 0.9 | 2.6 | 0.00 | 0.19 | 0.12 | 82 | 1016.7 |
| 20260506015104 | 55 | 157 | 0.0 | 1.7 | 0.00 | 0.19 | 0.12 | 82 | 1016.6 |
| 20260506014601 | 55 | 360 | 0.0 | 2.6 | 0.00 | 0.19 | 0.12 | 83 | 1016.6 |
| 20260506014000 | 55 | 360 | 0.0 | 4.3 | 0.00 | 0.19 | 0.12 | 82 | 1016.5 |
| 20260506013600 | 55 | 360 | 0.9 | 4.3 | 0.00 | 0.19 | 0.12 | 82 | 1016.5 |
| 20260506013111 | 56 | 360 | 0.9 | 4.3 | 0.00 | 0.19 | 0.12 | 82 | 1016.5 |
| 20260506012600 | 56 | 139 | 0.0 | 3.5 | 0.00 | 0.19 | 0.12 | 83 | 1016.6 |
| 20260506012104 | 56 | 138 | 0.9 | 3.5 | 0.00 | 0.19 | 0.12 | 83 | 1016.5 |
| 20260506011602 | 56 | 138 | 0.0 | 3.5 | 0.00 | 0.19 | 0.12 | 83 | 1016.6 |
| 20260506011059 | 56 | 147 | 0.0 | 2.6 | 0.00 | 0.19 | 0.12 | 83 | 1016.6 |
| 20260506010559 | 56 | 143 | 0.0 | 2.6 | 0.00 | 0.19 | 0.12 | 83 | 1016.6 |
| 20260506010120 | 56 | 159 | 0.0 | 3.5 | 0.00 | 0.19 | 0.12 | 83 | 1016.6 |
| 20260506005600 | 56 | 178 | 0.0 | 3.5 | 0.00 | 0.19 | 0.12 | 83 | 1016.6 |
| 20260506005101 | 56 | 188 | 0.9 | 3.5 | 0.00 | 0.19 | 0.12 | 82 | 1016.5 |
| 20260506004601 | 56 | 119 | 0.0 | 0.9 | 0.00 | 0.19 | 0.12 | 84 | 1016.6 |
| 20260506004058 | 56 | 119 | 0.0 | 3.5 | 0.00 | 0.19 | 0.12 | 83 | 1016.5 |
| 20260506003558 | 56 | 141 | 0.0 | 3.5 | 0.00 | 0.19 | 0.12 | 83 | 1016.6 |
| 20260506003119 | 56 | 141 | 0.9 | 3.5 | 0.00 | 0.19 | 0.12 | 82 | 1016.5 |
| 20260506002557 | 56 | 121 | 0.0 | 2.6 | 0.00 | 0.19 | 0.12 | 83 | 1016.4 |
| 20260506002059 | 56 | 155 | 0.9 | 1.7 | 0.00 | 0.19 | 0.12 | 84 | 1016.4 |